User: anonymous   Login
Location: Cran-Gévrier
(45.9039°N, 6.1012°E)
Time: 23:12:27
(UTC+00:00)
Language:

FENGYUN 1C DEB - Orbit

View from above orbital plane
View from above orbital plane
View from above satellite
View from above satellite

Ground track
Ground track

The orbit data is extracted from the following two-line orbital elements,

1 37054U 99025EEN 24050.21669790  .00000974  00000-0  47372-3 0  9991
2 37054  98.5033  52.2245 0102053 220.1808 139.1791 14.17735002550350
Epoch (UTC): 19 February 2024 05:12:02
Eccentricity: 0.0102053
inclination: 98.5033°
perigee height: 759 km
apogee height: 906 km
right ascension of ascending node: 52.2245°
argument of perigee: 220.1808°
revolutions per day: 14.17735002
mean anomaly at epoch: 139.1791°
orbit number at epoch: 55035

The dashed part of the orbit path shows where the satellite is in the earth's shadow,  

DLR